Other Public Products
Issued by NWS Grand Forks, ND

Home | Current Version | Previous Version | Graphics & Text | Print | Product List | Glossary On
Versions: 1 2 3 4 5 6 7 8 9 10 11 12 13 14 15 16 17 18 19 20 21 22 23 24 25 26 27 28 29 30 31 32 33 34 35 36 37 38 39 40 41 42 43 44 45 46 47 48 49 50
000
FPUS83 KFGF 130510
OPUFGF
PRAIRIE TO PINES WEATHER ROUNDUP
NATIONAL WEATHER SERVICE EASTERN NORTH DAKOTA/GRAND FORKS ND
1200 AM CDT SUN JUL 13 2014

 **SATELLITE DATA USED TO AUGMENT SKY COVER AT AUTOMATED STATIONS**
 *****  WEATHER ACROSS EASTERN NORTH DAKOTA  *****

CITY           SKY/WX    TMP DP  RH WIND       PRES   REMARKS
GRAND FORKS    CLEAR     54  52  93 W6        29.96R
GRAND FORKS AF NOT AVBL
GRAND CITY NWS   N/A     55 N/A N/A NW5         N/A
BUXTON         NOT AVBL
DEVILS LAKE    CLEAR     61  54  77 W9        29.98S
FARGO          MOCLDY    64  55  72 N8        29.96S
WAHPETON ARPT  CLEAR     61  50  67 N5        29.97R
$$

 *****  WEATHER ACROSS CENTRAL AND WESTERN NORTH DAKOTA  *****

CITY           SKY/WX    TMP DP  RH WIND       PRES   REMARKS
JAMESTOWN      MOCLDY    60  54  80 NW3       30.01S
BISMARCK       CLEAR     69  54  58 NW7       30.07R
MINOT          CLEAR     63  48  58 W13       30.05R
MINOT AFB      NOT AVBL
GARRISON         N/A     58  55  90 NW8       30.07R
WILLISTON      CLEAR     63  52  67 NW8       30.10F
DICKINSON      CLEAR     59  50  72 W5        30.13S
HETTINGER      CLEAR     58  55  90 W6        30.17R
$$

 *****  OTHER OBSERVATIONS NORTHEAST NORTH DAKOTA  *****

CITY           SKY/WX    TMP DP  RH WIND       PRES   REMARKS
WALHALLA         N/A     55  55 100 SW5         N/A
LANGDON        FAIR      50  48  93 SW8       29.97S
CAVALIER       FAIR      57  55  94 SW3       29.95S FOG
GRAFTON        FAIR      57  57 100 W7        29.96S
CANDO          FAIR      55  50  82 NW9       30.00S
FORT TOTTEN      N/A     57  56  96 NW2       29.95S
ROLLA          FAIR      55  45  67 NW10      30.01F
RUGBY          FAIR      55  52  88 W9        30.01S
 ***** THE ABOVE OBSERVATIONS ARE NON NWS ARE NOT QUALITY
        CONTROLLED AND MAY MIS-REPORT RAIN FOR SNOW...
$$

 *****  OTHER OBSERVATIONS SOUTHEAST NORTH DAKOTA *****

CITY           SKY/WX    TMP DP  RH WIND       PRES   REMARKS
COOPERSTOWN    NOT AVBL
VALLEY CITY    MOCLDY    59  59 100 NW7       30.00S
OAKES          NOT AVBL
GWINNER        CLEAR     64  57  77 N5        30.01R
SHEYENNE NWR     N/A     61  55  79 CALM      29.95S
BUFFALO        NOT AVBL
WYNDMERE       NOT AVBL
 ***** THE ABOVE OBSERVATIONS ARE NON NWS ARE NOT QUALITY
       CONTROLLED AND MAY MIS-REPORT RAIN FOR SNOW...
$$

  *****  WEATHER ACROSS NORTHERN MINNESOTA  *****

CITY           SKY/WX    TMP DP  RH WIND       PRES   REMARKS
FLAG ISLAND    CLEAR     55  48  76 W9        29.86F
WARROAD        CLEAR     52  46  82 SW5       29.91F
ROSEAU         CLEAR     52  46  82 SW5       29.92S
HALLOCK        CLEAR     57  54  88 CALM      29.93F
THF RVR FALLS  CLEAR     55  55 100 W7        29.95S
HALSTAD          N/A     57  55  94 NW5         N/A
FOSSTON        PTCLDY    54  52  94 CALM      29.97R
BAUDETTE       CLEAR     53  49  86 CALM      29.91S
WASKISH        PTCLDY    57  54  88 NW12      29.92R
CROOKSTON      CLEAR     54  54 100 W3        29.97S FOG
$$
  *****  WEATHER ACROSS CENTRAL AND WEST MINNESOTA  *****

CITY           SKY/WX    TMP DP  RH WIND       PRES   REMARKS
BEMIDJI        PTCLDY    54  53  95 NW8       29.93S
PARK RAPIDS    RAIN      60  55  83 NW8       29.94R
WADENA         PTCLDY    59  54  82 CALM      29.95S
DETROIT LAKES  PTCLDY    63  55  77 NW7       29.96F
MOORHEAD       PTCLDY    63  61  94 N3        29.97R
FERGUS FALLS   CLEAR     63  52  67 NE3       29.96S
ELBOW LAKE     FAIR      64  54  68 N9G20     29.96R
MORRIS MN      CLEAR     68  63  83 W8        29.93S
STAPLES        PTCLDY    61  52  72 CALM      29.94S
WHEATON        CLEAR     64  54  68 N10       29.98R
$$
  *****  WEATHER ELSEWHERE ACROSS MINNESOTA  *****

CITY           SKY/WX    TMP DP  RH WIND       PRES   REMARKS
DULUTH         LGT RAIN  60  54  80 NW13      29.89R
INTRNTL FALLS  PTCLDY    53  50  89 NW8       29.87S
ELY            CLOUDY    55  52  88 W3        29.85F
CLOQUET        CLOUDY    59  55  88 NW8       29.91R
BRAINERD       MOCLDY    67  55  65 N7        29.93R
HIBBING        LGT RAIN  57  53  86 W5        29.88F
ALEXANDRIA     CLEAR     67  61  81 NW13      29.95S
SAINT CLOUD    PTCLDY    66  61  84 SW5       29.91F
MINNEAPOLIS    CLEAR     69  65  86 SW7       29.93F
$$

  *****  WEATHER ACROSS SOUTH DAKOTA  *****

CITY           SKY/WX    TMP DP  RH WIND       PRES   REMARKS
SIOUX FALLS    CLEAR     69  65  86 CALM      30.02S
BROOKINGS      NOT AVBL
WATERTOWN      MOCLDY    66  64  93 W7        30.01F
HURON          PTCLDY    70  65  84 W6        30.02S
SISSETON         N/A     71  61  70 NW12      29.95S
ABERDEEN       PTCLDY    68  60  75 NW6       30.01S
MITCHELL       CLEAR     71  65  81 W6        30.04R
PIERRE         CLEAR     70  64  81 SW8       30.06S
MOBRIDGE       CLEAR     63  61  93 CALM      30.05R
RAPID CITY     CLEAR     67  63  87 NW7       30.20R
$$

  *****  SOME WEATHER IN NEARBY STATES *****

CITY           SKY/WX    TMP DP  RH WIND       PRES   REMARKS
GLASGOW MT     CLEAR     66  51  58 NE7       30.15
GREAT FALLS MT CLEAR     72  45  37 E9        30.22R
CHEYENNE WY    PTCLDY    64  54  69 SE7       30.38S
SCOTTSBLUFF NE MOCLDY    67  65  93 NW3       30.24F
OMAHA NE       PTCLDY    71  66  84 CALM      30.00S
DES MOINES IA  PTCLDY    71  66  84 N3        29.99R
DAVENPORT IA     N/A     70  68  93 NW8       29.93S
CHICAGO IL     RAIN      72  66  81 W18G31    29.89R
EAU CLAIRE WI  CLEAR     64  64 100 SW6       29.91F
LA CROSSE WI   CLEAR     65  63  93 S6        29.92F
$$

  *****  SOME NATIONAL WEATHER *****

CITY           SKY/WX    TMP DP  RH WIND       PRES   REMARKS
LA GUARDIA NY  MOCLDY    73  64  73 S9        30.12F
RALEIGH NC     PTCLDY    76  68  76 S7        30.16S
ATLANTA GA     PTCLDY    76  69  79 S5        30.15S
NEW ORLEANS LA PTCLDY    81  74  79 SE5       30.09S
OKLAHOMA CITY  CLEAR     73  59  61 SE6       30.07R
ALBUQUERQUE NM PTCLDY    78  48  34 E8        30.22R
SALT LAKE CITY CLEAR     82  52  35 N7        30.14R
LOS ANGELES CA PTCLDY    69  61  75 W7        29.95R
BOISE ID       CLEAR     86  43  22 NE3       30.05R
SEATTLE WA     CLEAR     75  52  44 N7        30.08R
$$

*** WEATHER ACROSS MANITOBA...SASKATCHEWAN AND ONTARIO ***
                ***ONTARIO***

CITY           SKY/WX    TMP DP  RH WIND       PRES   REMARKS
GERALDTON      PTCLDY    59  52  77 SW8       29.68F
THUNDER BAY    LGT RAIN  63  57  82 W5        29.76R
SIOUX LOOKOUT  MOCLDY    52  50  93 W6        29.78F
TORONTO        CLOUDY    73  61  64 S5        29.94F
BIG TROUT LK   CLOUDY    52  50  93 SW6       29.53F
PICKLE LAKE    NOT AVBL
DRYDEN         CLEAR     50  48  93 W10       29.81S
KENORA         CLEAR     52  48  87 W7        29.86F
$$
                *** MANITOBA***

CITY           SKY/WX    TMP DP  RH WIND       PRES   REMARKS
BRANDON        CLEAR     54  46  76 W10       29.98F
DAUPHIN        MOCLDY    54  45  71 W8        29.95S
ISLAND LAKE    LGT RAIN  50  48  93 W15       29.61F
PILOT MOUND      N/A     52  50  93 W5          N/A
THE PAS        MOCLDY    57  46  67 NW15      29.89F
THOMPSON       LGT RAIN  48  48 100 N21G30    29.70R
WINNIPEG       PTCLDY    55  50  82 W8        29.91F
LYNN LAKE      LGT RAIN  50  46  87 N16G28    29.91R
CHURCHILL      LGT RAIN  43  41  93 N20G26    29.59R
GILLAM         MOCLDY    46  46 100 N17       29.58R
$$
                ***SASKATCHEWAN***

CITY           SKY/WX    TMP DP  RH WIND       PRES   REMARKS
ESTEVAN        NOT AVBL
KINDERSLEY     PTCLDY    59  54  82 NE7       30.18S
LLOYDMINSTER   CLEAR     59  52  77 VRB2      30.19R
PRINCE ALBERT  CLEAR     54  43  66 NW8       30.09S
REGINA         CLEAR     52  46  82 NW8       30.12R



USA.gov is the U.S. government's official web portal to all federal, state and local government web resources and services.